Black Gold Race - HAND INV PULLING 9-10 FLIGHTS DAY 1 AND 2

Station: Waller Tx - T Race

Distance: 1 Miles

Release: 09-Jul-2024 09:30

Weather Release:    Arrival:

Wind at Release:     Wind at Arrival:

Temp at Release: °    Temp at Arrival: °

Lofts: 303

Birds: 1512

Clocked: 1498

Good Luck to Everyone!
Drops Pos Breeder Pigeon Name Color Sex Team Ent Arrival Speed To Win Elg Pd400
1 Comanche Oaks Loft - TX 24148-AU24-ARPU BC C 0 1 10:09:16.78 44.8069 00:00:00 Yes
2 Las Vegas Syndicate - NV 0028-AU24-MESC Kram DCWF C 0 1 10:10:22.98 43.5827 00:01:06 Yes
3 Dekeratry Loft - TX 4430-AU24-HOT WGRI C 0 1 10:11:19.15 42.5952 00:02:02 Yes
4 Ramirez Loft - TX 114601-MX24-FMC DCWF C 0 1 10:12:03.41 41.8481 00:02:47 Yes
5 SKYLAB RACE RESEARCH and DEVELOPMENT - MN 24191-AU24-UNIT BC C 0 1 10:12:46.39 41.1473 00:03:30 Yes
6 Hanely Loft - FL 0007-AU24-KMO8 BB C 0 1 10:13:28.60 40.4815 00:04:12 Yes
7 Ariagny Loft - FL 48678-AU24-ARPU SIL C 0 1 10:14:08.12 39.8773 00:04:51 Yes
8 Carrerafrenchie Loft - FL 14984-AU24-JEDD DC H 0 1 10:15:10.61 38.9580 00:05:54 Yes
9 Mike Hines - SD 4215-AU24-GPF REDC H 0 1 10:15:47.33 38.4373 00:06:31 Yes
10 Mike Hines - SD 4211-AU24-GPF BB C 0 2 10:16:19.32 37.9949 00:07:03 Yes
11 Big Andy - FL 0814-AU24-BIGA SSP C 0 1 10:17:17.67 37.2136 00:08:01 Yes
12 J & T Loft - MD 0077-AU24-JT BB C 0 1 10:19:01.15 35.9043 00:09:44 Yes
13 Serrano Brothers Loft - FL 66413-AU24-ARPU BB C 0 1 10:19:46.62 35.3577 00:10:30 Yes
14 Serrano Brothers Loft - FL 66437-AU24-ARPU BBWF C 0 2 10:20:11.88 35.0612 00:10:55 Yes
15 A P C Loft - TX 0264-AU24-APC BB C 0 1 10:20:40.57 34.7303 00:11:24 Yes
16 B F L - TX 24002-AU24-BFL BB H 0 1 10:20:55.14 34.5647 00:11:38 Yes
17 Eastern Pearl Loft - VA 1645-AU24-EPL 681🏆1244 BB C 0 1 10:21:16.76 34.3218 00:12:00 Yes
18 Big Andy - FL 0844-AU24-BIGA BB H 0 2 10:21:36.99 34.0976 00:12:20 Yes
19 Mccallister Loft - AZ 0567-AU24-DUTC BB C 0 1 10:22:05.54 33.7862 00:12:49 Yes
20 Savich Racing Pigeons - VT 6054-AU24-CVR Washington DC C 0 1 10:22:40.56 33.4118 00:13:24 Yes
21 Moriah Loft - FL 21908-AU24-ARPU BC C 0 1 10:23:07.37 33.1308 00:13:51 Yes
22 A-Di Chen Loft - FL 0178-AU24-ADC BB C 0 1 10:23:35.48 32.8411 00:14:19 Yes
23 LAS CUEVITAS - TX 6942-AU24-DALL BBWF C 0 1 10:24:03.18 32.5606 00:14:46 Yes
24 LAS CUEVITAS - TX 6939-AU24-DALL PWF C 0 2 10:24:30.59 32.2878 00:15:14 Yes
25 A P C Loft - TX 0035-AU24-APC BB H 0 2 10:24:52.16 32.0762 00:15:35 Yes
26 Borden - TX 29338-AU24-AA DC C 0 1 10:25:07.39 31.9285 00:15:51 Yes
27 Genesis Syndicate Loft - AZ 0357-AU24-GENE BB C 0 1 10:25:40.36 31.6134 00:16:24 Yes
28 EscapeULoft - CO 2403-AU24-ZEPH BBWF H 0 1 10:26:02.30 31.4071 00:16:46 Yes
29 Aaaa Family Loft - MD 35810-AU24-FOYS BB C 0 1 10:26:23.26 31.2125 00:17:06 Yes
30 Dmv Loft - FL 0350-AU24-DMV MARTINEZ 350 PENC C 0 1 10:26:46.07 31.0035 00:17:29 Yes
31 PrestigeLoft Grajiola Syndicate - CA 0019-AU24-SEL BC C 0 1 10:27:10.34 30.7841 00:17:54 Yes
32 Bay Diamond Team - CA 0086-AU24-TRAN BB C 0 1 10:27:33.94 30.5738 00:18:17 Yes
33 Nicolas Loft - FL 36584-AU24-ARPU SLAT H 0 1 10:27:53.25 30.4038 00:18:36 Yes
34 R F L - FL 6123-AU24-VITA BB C 0 1 10:28:09.17 30.2651 00:18:52 Yes
35 Hayloft - CA 4318-AU24-GSF BB H 0 1 10:28:20.36 30.1683 00:19:04 Yes
36 003 loft - MD 0070-AU24-CCBR BBWF C 0 1 10:28:47.17 29.9390 00:19:30 Yes
37 Las Vegas Syndicate - NV 0021-AU24-MESC Vegas DCWF H 0 2 10:29:16.54 29.6918 00:20:00 Yes
38 YR-LoftDany Loft - TX 38921-AU24-ARPU BC C 0 1 10:29:37.69 29.5163 00:20:21 Yes
39 Columba Loft - GA 24135-AU24-LYNC BC C 0 1 10:30:02.76 29.3109 00:20:46 Yes
40 Medina Loft - TX 0042-AU24-JJME BB C 0 1 10:30:23.81 29.1406 00:21:07 Yes
41 Lebresco-Rubino - PA 0416-IF24-PHX BBWF C 0 1 10:30:52.56 28.9112 00:21:36 Yes
42 A P C Loft - TX 0230-AU24-APC BB C 0 3 10:31:14.97 28.7349 00:21:58 Yes
43 PigeonMart - TX 0218-AU24-PIGE BCWF C 0 1 10:31:42.83 28.5187 00:22:26 Yes
44 Kryptonite Loft - TX 24989-AU24-AA BB C 0 1 10:32:06.10 28.3406 00:22:49 Yes
45 High Hopes - NV 17802-AU24-JEDD BB H 0 1 10:32:28.89 28.1683 00:23:12 Yes
46 R F L - FL 6196-AU24-VITA BB C 0 2 10:32:52.61 27.9912 00:23:36 Yes
47 Royal Heir Loft - UT 24013-IF24-RHL REDC C 0 1 10:33:12.46 27.8447 00:23:56 Yes
48 FreebyrdTapia Syndicate - NM 24066-AU24-AA 869 x 322 BC C 0 1 10:33:37.70 27.6606 00:24:21 Yes
49 Trinity Family Loft - TX 0787-AU24-TRIN BC H 0 1 10:34:06.50 27.4535 00:24:50 Yes
50 003 loft - MD 1321-AU24-CAP BC C 0 2 10:34:27.61 27.3037 00:25:11 Yes
51 Sandstrom Brothers Loft - MN 0616-AU24-SLB BC H 0 1 10:34:58.08 27.0903 00:25:41 Yes
52 Lonestar Loft - TX 0415-AU24-CLG BB C 0 1 10:35:25.08 26.9039 00:26:08 Yes
53 High Hopes - NV 17811-AU24-JEDD REDC C 0 2 10:35:48.28 26.7458 00:26:32 Yes
54 Firebird Loft - SC 0030-AU24-FIRE BC C 0 1 10:36:10.33 26.5973 00:26:54 Yes
55 Firebird Loft - SC 0031-AU24-FIRE OPAL C 0 2 10:36:32.55 26.4493 00:27:16 Yes
56 Sergio Liam Loft - TX 11765-AU24-JEDD BB C 0 1 10:37:01.27 26.2604 00:27:44 Yes
57 Shift N Time - TX 2409-AU24-SHIF BCWF C 0 1 10:37:25.13 26.1055 00:28:08 Yes
58 Sienna Loft - NC 2108-IF24-BSC BBWF C 0 1 10:37:55.79 25.9091 00:28:39 Yes
59 Ciro Family Loft - FL 0100-AU24-CIRO BB C 0 1 10:38:18.13 25.7679 00:29:01 Yes
60 Doug Sanders Loft - CA 0334-AU24-SAND BB C 0 1 10:38:46.89 25.5883 00:29:30 Yes
61 98 M J Loft - PA 4015-AU24-JIAN BBWF C 0 1 10:39:14.53 25.4180 00:29:58 Yes
62 Ron Talbot /Jimmy Fernandez - LA 0149-AU24-RONJ BCWF H 0 1 10:39:39.40 25.2668 00:30:23 Yes
63 Freddie Majors - TX 0760-AU24-GSWC Amado BC C 0 1 10:40:02.37 25.1287 00:30:46 Yes
64 Maciej Rychtarczyk - IL 9212-AU24-CHIC DC C 0 1 10:40:25.45 24.9914 00:31:09 Yes
65 Aaaa Family Loft - MD 35806-AU24-FOYS BB H 0 2 10:40:47.50 24.8617 00:31:31 Yes
66 Cubas Lofts - FL 8816-AU24-AA BB C 0 1 10:41:08.51 24.7393 00:31:52 Yes
67 Tx Lin Loft - TX 0210-AU24-TXLI 🌈🌈🌈👊👊👊 BB C 0 1 10:41:35.43 24.5843 00:32:19 Yes
68 Eastern Pearl Loft - VA 1667-AU24-EPL 7789🏆6240 BB C 0 2 10:42:14.51 24.3626 00:32:58 Yes
69 Tx Lin Loft - TX 0296-AU24-TXLI 🌈🌈🌈👊👊👊 BB C 0 2 10:42:44.48 24.1953 00:33:28 Yes
70 Ramirez Loft - TX 114624-MX24-FMC BB C 0 2 10:43:09.67 24.0565 00:33:53 Yes
71 Comanche Oaks Loft - TX 24151-AU24-ARPU GRIZ H 0 2 10:43:32.31 23.9330 00:34:16 Yes
72 Racing Pigeon Mall - WA 0419-AU24-RPM BC C 0 1 10:43:56.58 23.8021 00:34:40 Yes
73 Dmv Loft - FL 0308-AU24-DMV MARTINEZ 308 BB C 0 2 10:44:28.71 23.6310 00:35:12 Yes
74 Boiet Lugo - JB FARVILL - TX 19411-AU24-JBFA BB C 0 1 10:44:52.27 23.5070 00:35:35 Yes
75 71st Airborne - TX 7160-AU24-DALL BB C 0 1 10:45:23.20 23.3463 00:36:06 Yes
76 Roby Family Loft - FL 0506-AU24-ROBY BB C 0 1 10:45:46.38 23.2273 00:36:30 Yes
77 V-A Family Loft - TX 0143-AU24-VAFL DC H 0 1 10:46:12.94 23.0924 00:36:56 Yes
78 Do Drop In Loft - NC 0015-AU24-TRC BC C 0 1 10:46:38.31 22.9650 00:37:22 Yes
79 Mason Harper Loft - OK 14411-AU24-ARPU Sylvia SIL H 0 1 10:46:59.70 22.8586 00:37:43 Yes
80 Redtex - TX 0743-AU24-REDT speckles BBPD C 0 1 10:47:31.61 22.7018 00:38:15 Yes
81 Sikon - IL 1607-AU24-SIKO BBWF C 0 1 10:47:57.80 22.5747 00:38:41 Yes
82 Carrerafrenchie Loft - FL 7549-AU24-ARPU BB C 0 2 10:48:18.31 22.4762 00:39:02 Yes
83 Crazy Als Lofts - CO 6537-AU24-CRAZ BB C 0 1 10:48:48.52 22.3326 00:39:32 Yes
84 Milestone Loft - CA 6509-AU24-JEDD 🌺🌺🌺🌺🌺🌺 BB H 0 1 10:49:12.46 22.2201 00:39:56 Yes
85 Nemelka Racing Pigeon Loft - UT 4096-AU24-NRPL 😎😎😎😎😎😎 BB C 0 1 10:49:35.73 22.1118 00:40:19 Yes
86 Shroh Loft - NY 30712-AU24-JEDD REDC H 0 1 10:49:58.83 22.0054 00:40:42 Yes
87 Bull City Loft - NC 4473-AU24-RDU BB C 0 1 10:50:20.53 21.9063 00:41:04 Yes
88 Do Drop In Loft - NC 0049-AU24-TRC BB C 0 2 10:50:42.80 21.8056 00:41:26 Yes
89 Royal Heir Loft - UT 24016-IF24-RHL BB C 0 2 10:51:11.32 21.6779 00:41:55 Yes
90 Roby Family Loft - FL 0542-AU24-ROBY BB H 0 2 10:51:32.02 21.5862 00:42:15 Yes
91 JAZZY R B LOFT - FL 0333-AU24-JAZZ That's my Boy👹 BB C 0 1 10:52:00.14 21.4628 00:42:43 Yes
92 Genesis Syndicate Loft - AZ 0351-AU24-GENE BBWF H 0 2 10:52:25.55 21.3525 00:43:09 Yes
93 Aaron Loft - FL 0022-AU24-AARO BBWF C 0 1 10:52:48.11 21.2556 00:43:31 Yes
94 Pocho Loft - KY 25548-AU24-FOYS BB C 0 1 10:53:12.96 21.1498 00:43:56 Yes
95 Lfl/Si Se Puede Farm - 0165-AU24-LAMO BC H 0 1 10:53:32.15 21.0688 00:44:15 Yes
96 McNelty Loft - TX 0926-AU24-GCI 34206-563 BC C 0 1 10:54:01.46 20.9463 00:44:45 Yes
97 Tx Lin Loft - TX 0319-AU24-TXLI FLlin奶酪¥123Tilson BC H 0 3 10:54:27.17 20.8400 00:45:10 Yes
98 Jorge Leon - TX 26461-AU24-JEDD OPAL C 0 1 10:55:12.57 20.6550 00:45:56 Yes
99 Trinity Family Loft - TX 0789-AU24-TRIN PENC C 0 2 10:56:46.51 20.2823 00:47:30 Yes
100 Kin Yung & William Yung Loft - TX 2429-AU24-KHY BB C 0 1 10:57:11.10 20.1870 00:47:54 Yes

There are 1498 bird records

Note: These Race Results are unofficial and subject to change until verified by the Race Committee and declared final.

 

Ship Birds to:

Black Gold Race attn: Yoanny

31240 Pohl Rd
Waller TX 77484

cell 832-673-5350

email: blackgoldrace@gmail.com


windy
Click for Forecast for 77484 from weatherUSA